Location: Poughquag
(41.6090°N, 73.6820°W)
Time: 02:04:15
(UTC-04:00)

Transit 4A - Pass Details

Date: 06 June 2020
Orbit: 866 x 978 km, 66.8° (Epoch: 06 July)

Event Time Altitude Azimuth Distance (km) Brightness Sun altitude
Rises 09:41:25 0° 331° (NNW) 3,575 10.7 45.9°
Reaches altitude 10° 09:43:55 10° 333° (NNW) 2,645 10.1 46.3°
Maximum altitude 09:50:06 75° 59° (ENE) 988 9.3 47.5°
Drops below altitude 10° 09:56:25 10° 144° (SE) 2,698 11.0 48.6°
Sets 09:59:00 0° 146° (SSE) 3,651 11.4 49.1°
